Regional Weather Roundup
Issued by NWS Columbia, SC

Home | Current Version | Previous Version | Text Only | Print | Product List | Glossary On
Versions: 1 2 3 4 5 6 7 8 9 10 11 12 13 14 15 16 17 18 19 20 21 22 23 24 25 26 27 28 29 30 31 32 33 34 35 36 37 38 39 40 41 42 43 44 45 46 47 48 49 50
000
ASUS42 KCAE 200510
RWRCAE
REGIONAL WEATHER ROUNDUP
NATIONAL WEATHER SERVICE COLUMBIA SC
1200 AM EST SAT DEC 20 2014

NOTE: "FAIR" INDICATES FEW OR NO CLOUDS BELOW 12,000 FEET WITH NO
SIGNIFICANT WEATHER AND/OR OBSTRUCTIONS TO VISIBILITY.

NOT ALL STATIONS ARE QUALITY CONTROLLED BY THE NATIONAL
WEATHER SERVICE. USE DATA WITH CAUTION...ESPECIALLY
DEWPOINT OBSERVATIONS.

SCZ001>056-GAZ040-063>065-077-200600-
...UPSTATE SOUTH CAROLINA...

CITY           SKY/WX    TMP DP  RH WIND       PRES   REMARKS
ANDERSON       CLOUDY    45  37  73 CALM      30.16S
LIBERTY        CLOUDY    42  33  72 MISG      30.15F
SPARTANBURG    FAIR      46  36  66 CALM      30.16F
CLEMSON        CLOUDY    48  37  65 CALM      30.16F
GREENVILLE     CLOUDY    48  33  56 CALM      30.16F
GREENWOOD      CLOUDY    47  38  71 CALM      30.18R
GREER          CLOUDY    46  35  65 NE3       30.15F
ROCK HILL      CLOUDY    42  33  70 CALM      30.18R
CHESTER        FAIR      46  32  57 CALM      30.19R
LAURENS        FAIR      43  41  93 CALM      30.17R


...CENTRAL SOUTH CAROLINA...

CITY           SKY/WX    TMP DP  RH WIND       PRES   REMARKS
COLUMBIA APT   CLOUDY    48  40  73 CALM      30.18R
COLUMBIA OWENS CLOUDY    50  35  56 CALM      30.20R
DARLINGTON     MOCLDY    41  34  75 NE6       30.20S
FLORENCE       CLOUDY    46  33  60 NE7       30.18S
MCENTIRE ANGB  CLOUDY    49  34  55 NE3       30.19R
ORANGEBURG     CLOUDY    50  42  74 CALM      30.18R
SUMTER SHAW    CLOUDY    46  36  69 CALM      30.17R
NEWBERRY       FAIR      46  36  66 SE3       30.20R
AIKEN          CLOUDY    48  43  81 E3        30.19F
BARNWELL         N/A     50  46  87 CALM      30.17S
CAMDEN         FAIR      45  32  61 CALM      30.20R
LANCASTER      FAIR      43  36  75 NE5       30.18S
WINNSBORO      FAIR      50  32  50 E6        30.17R


...EASTERN AND COASTAL SOUTH CAROLINA...

CITY           SKY/WX    TMP DP  RH WIND       PRES   REMARKS
MYRTLE BEACH   MOCLDY    46  41  81 NE5       30.19R
N MYRTLE BCH   MOCLDY    44  39  82 NE5       30.19R
CONWAY         FAIR      39  39 100 CALM      30.19R FOG
MARION         FAIR      41  34  75 CALM      30.20S
HARTSVILLE     FAIR      45  30  57 NE3       30.19S
FLORENCE       CLOUDY    46  33  60 NE7       30.18S
DARLINGTON     MOCLDY    41  34  75 NE6       30.20S
CHARLESTON APT CLOUDY    50  42  74 CALM      30.17R
MOUNT PLEASANT FAIR      48  45  87 CALM      30.16R
WALTERBORO     CLOUDY    50 N/A N/A CALM      30.18R
BEAUFORT       CLOUDY    52  48  86 CALM      30.17R


...EASTERN GEORGIA...

CITY           SKY/WX    TMP DP  RH WIND       PRES   REMARKS
AUGUSTA BUSH F CLOUDY    48  43  82 CALM      30.16R
AUGUSTA DANIEL CLOUDY    53  43  68 SE6       30.16R
THOMSON        CLOUDY    49  46  92 CALM      30.20R
WASHINGTON     FAIR      50  45  81 NE3       30.15S
CLAXTON        CLOUDY    46  46 100 CALM      30.15S
SYLVANIA       CLOUDY    49  47  94 CALM      30.16F
STATESBORO     CLOUDY    48  48 100 CALM      30.14F
SAVANNAH       CLOUDY    52  47  83 CALM      30.15F


...SOUTHERN NORTH CAROLINA...

CITY           SKY/WX    TMP DP  RH WIND       PRES   REMARKS
CHARLOTTE      CLOUDY    48  25  40 E7        30.19R
MONROE         CLOUDY    43  31  62 NE6       30.18R
WADESBORO      MOCLDY    37  34  89 CALM      30.20R
ROCKINGHAM     CLOUDY    44  30  57 E6        30.20R
RUTHERFORDTON  CLOUDY    42  35  75 NW3       30.18S
ASHEVILLE      CLOUDY    40  23  50 CALM      30.16S

$$



USA.gov is the U.S. government's official web portal to all federal, state and local government web resources and services.